This demonstration page uses our WeatherBlox Daily Observations layout. Learn more.

41.55636, -103.73856

Hourly Observations for March 28, 2019

Temp ( °F °C ) Dew Point ( °F °C ) Humidity (%) Winds ( mph kmh ) Pressure ( in mb ) Visibility ( mi km ) Precip ( " mm )
12:58 am 00:58 Hazy 56 13.5 32 -0.2 39 39 ESE 6 9 29.93 1013 4 6.43736 0 0
1:58 am 01:58 Clear 52 11.3 34 0.9 49 49 ESE 12 19 29.96 1015 10 16.0934 0 0
2:58 am 02:58 Partly Cloudy 48 9.1 33 0.7 56 56 E 10 17 29.96 1015 10 16.0934 0 0
3:58 am 03:58 Cloudy 50 10.2 30 -1 46 46 E 6 9 29.99 1016 10 16.0934 0 0
4:58 am 04:58 Mostly Cloudy 49 9.3 30 -1.2 48 48 Calm 29.96 1015 10 16.0934 0 0
5:58 am 05:58 Mostly Cloudy 47 8.3 31 -0.4 55 55 ESE 17 28 29.93 1014 10 16.0934 0 0
6:58 am 06:58 Mostly Cloudy 44 6.7 35 1.5 70 70 SE 17 28 29.9 1012 10 16.0934 0 0
7:58 am 07:58 Clear 41 4.9 34 1.3 78 78 S 15 24 29.89 1012 10 16.0934 0 0
8:58 am 08:58 Clear 39 3.8 34 1 82 82 S 5 7 29.91 1013 10 16.0934 0 0
9:58 am 09:58 Clear 38 3.1 33 0.8 85 85 Calm 29.95 1014 10 16.0934 0 0
10:58 am 10:58 Clear 37 2.6 33 0.3 85 85 SSE 5 7 29.95 1014 10 16.0934 0 0
11:58 am 11:58 Clear 35 1.9 33 0.3 89 89 S 9 15 29.97 1015 10 16.0934 0 0
12:58 pm 12:58 Sunny 36 2.4 33 0.5 87 87 SSE 9 15 29.99 1016 10 16.0934 0 0
1:58 pm 13:58 Sunny 38 3.1 35 1.4 89 89 SE 7 11 30.03 1017 10 16.0934 0 0
2:58 pm 14:58 Sunny 39 3.9 35 1.8 86 86 E 8 13 30.05 1018 10 16.0934 0 0
3:56 pm 15:56 Cloudy 39 4 31 -0.5 73 73 E 9 15 30.06 1018 10 16.0934 0 0
4:56 pm 16:56 Mostly Cloudy 40 4.2 31 -0.3 73 73 E 10 17 30.07 1018 10 16.0934 0 0
5:56 pm 17:56 Mostly Cloudy 41 4.9 34 0.9 76 76 E 13 20 30.07 1018 10 16.0934 0 0
6:58 pm 18:58 Cloudy 40 4.3 33 0.7 78 78 E 13 20 30.1 1019 10 16.0934 0 0
7:58 pm 19:58 Cloudy 39 3.8 33 0.8 81 81 ENE 9 15 30.12 1020 10 16.0934 0 0
8:58 pm 20:58 Cloudy with Mist and Fog 36 2.3 34 0.9 91 91 E 14 22 30.13 1020 5 8.0467 0 0
9:58 pm 21:58 Cloudy with Mist and Fog 36 2.2 34 1.2 93 93 E 10 17 30.13 1020 5 8.0467 0 0
10:58 pm 22:58 Cloudy with Mist and Fog 35 1.9 33 0.8 93 93 E 10 17 30.16 1021 5 8.0467 0 0
11:58 pm 23:58 Cloudy with Mist and Fog 35 1.9 33 0.8 93 93 ESE 12 19 30.15 1021 6 9.65604 0 0

Powered by AerisWeather